| time (UTC) | temp C | wind direction | speed KPH | gust KPH | rain 1hr cm | rain 24hr cm | rain mn cm | humidity % | barometer mb |
| 20260507123304 | 7 | 220 | 3.2 | 16.1 | 0.00 | 0.08 | 0.08 | 46 | 1015.7 |
| 20260507122803 | 7 | 180 | 4.8 | 12.9 | 0.00 | 0.08 | 0.08 | 44 | 1015.7 |
| 20260507122307 | 7 | 266 | 9.7 | 19.3 | 0.00 | 0.08 | 0.08 | 47 | 1015.7 |
| 20260507121804 | 7 | 251 | 9.7 | 19.3 | 0.00 | 0.08 | 0.08 | 48 | 1015.7 |
| 20260507121304 | 7 | 248 | 8.0 | 14.5 | 0.00 | 0.08 | 0.08 | 47 | 1015.7 |
| 20260507120803 | 8 | 224 | 4.8 | 14.5 | 0.00 | 0.08 | 0.08 | 48 | 1015.7 |
| 20260507120303 | 7 | 266 | 4.8 | 14.5 | 0.00 | 0.08 | 0.08 | 48 | 1015.7 |
| 20260507115803 | 8 | 263 | 4.8 | 11.3 | 0.00 | 0.08 | 0.08 | 50 | 1015.7 |
| 20260507115307 | 6 | 200 | 4.8 | 16.1 | 0.00 | 0.08 | 0.08 | 49 | 1015.8 |
| 20260507114804 | 7 | 270 | 6.4 | 16.1 | 0.00 | 0.08 | 0.08 | 48 | 1015.7 |
| 20260507114303 | 6 | 245 | 9.7 | 14.5 | 0.00 | 0.08 | 0.08 | 47 | 1015.8 |
| 20260507112804 | 7 | 244 | 4.8 | 9.7 | 0.00 | 0.08 | 0.08 | 46 | 1015.6 |
| 20260507112306 | 6 | 220 | 6.4 | 14.5 | 0.00 | 0.08 | 0.08 | 51 | 1015.7 |
| 20260507111804 | 6 | 249 | 4.8 | 14.5 | 0.00 | 0.08 | 0.08 | 48 | 1015.8 |
| 20260507111304 | 7 | 201 | 3.2 | 4.8 | 0.00 | 0.08 | 0.08 | 51 | 1015.8 |
| 20260507110803 | 7 | 196 | 3.2 | 8.0 | 0.00 | 0.08 | 0.08 | 50 | 1015.7 |
| 20260507110303 | 6 | 41 | 1.6 | 9.7 | 0.00 | 0.08 | 0.08 | 55 | 1015.7 |
| 20260507105804 | 6 | 240 | 3.2 | 8.0 | 0.00 | 0.08 | 0.08 | 56 | 1015.7 |
| 20260507104804 | 7 | 141 | 3.2 | 4.8 | 0.00 | 0.08 | 0.08 | 52 | 1015.5 |
| 20260507104304 | 8 | 273 | 3.2 | 11.3 | 0.00 | 0.08 | 0.08 | 55 | 1015.5 |
| 20260507103804 | 7 | 282 | 4.8 | 11.3 | 0.00 | 0.08 | 0.08 | 55 | 1015.5 |
| 20260507103303 | 6 | 273 | 8.0 | 14.5 | 0.00 | 0.08 | 0.08 | 60 | 1015.5 |
| 20260507102804 | 5 | 252 | 8.0 | 19.3 | 0.00 | 0.08 | 0.08 | 57 | 1015.4 |
| 20260507101804 | 6 | 27 | 3.2 | 12.9 | 0.00 | 0.08 | 0.08 | 60 | 1015.4 |
| 20260507101303 | 6 | 276 | 1.6 | 9.7 | 0.00 | 0.08 | 0.08 | 59 | 1015.4 |
| 20260507100303 | 6 | 224 | 1.6 | 11.3 | 0.00 | 0.08 | 0.08 | 56 | 1015.2 |
| 20260507095803 | 5 | 274 | 1.6 | 4.8 | 0.00 | 0.08 | 0.08 | 63 | 1015.2 |
| 20260507095306 | 6 | 227 | 6.4 | 14.5 | 0.00 | 0.08 | 0.08 | 56 | 1015.3 |
| 20260507094804 | 6 | 287 | 3.2 | 8.0 | 0.00 | 0.08 | 0.08 | 62 | 1015.4 |
| 20260507093804 | 5 | 187 | 1.6 | 3.2 | 0.00 | 0.08 | 0.08 | 62 | 1015.3 |
| 20260507092803 | 6 | 252 | 1.6 | 4.8 | 0.00 | 0.08 | 0.08 | 66 | 1015.3 |
| 20260507092306 | 4 | 272 | 3.2 | 12.9 | 0.00 | 0.08 | 0.08 | 70 | 1015.3 |
| 20260507091803 | 4 | 274 | 8.0 | 19.3 | 0.00 | 0.08 | 0.08 | 67 | 1015.3 |
| 20260507091303 | 4 | 184 | 3.2 | 8.0 | 0.00 | 0.08 | 0.08 | 65 | 1015.2 |
| 20260507090803 | 3 | 221 | 8.0 | 16.1 | 0.00 | 0.08 | 0.08 | 64 | 1015.2 |
| 20260507085804 | 4 | 231 | 3.2 | 8.0 | 0.00 | 0.08 | 0.08 | 68 | 1015.2 |
| 20260507085306 | 4 | 181 | 3.2 | 14.5 | 0.00 | 0.08 | 0.08 | 66 | 1015.1 |
| 20260507084804 | 5 | 62 | 3.2 | 8.0 | 0.00 | 0.08 | 0.08 | 67 | 1015.1 |
| 20260507084304 | 5 | 39 | 3.2 | 8.0 | 0.00 | 0.08 | 0.08 | 68 | 1015.1 |
| 20260507083303 | 3 | 192 | 3.2 | 9.7 | 0.00 | 0.08 | 0.08 | 71 | 1015.2 |
| 20260507082804 | 3 | 238 | 3.2 | 11.3 | 0.00 | 0.08 | 0.08 | 69 | 1015.1 |
| 20260507082306 | 3 | 206 | 4.8 | 8.0 | 0.00 | 0.08 | 0.08 | 70 | 1015.0 |
| 20260507081803 | 3 | 215 | 3.2 | 11.3 | 0.00 | 0.08 | 0.08 | 70 | 1015.0 |
| 20260507081304 | 3 | 250 | 4.8 | 8.0 | 0.00 | 0.08 | 0.08 | 70 | 1014.9 |
| 20260507080804 | 3 | 222 | 4.8 | 12.9 | 0.00 | 0.08 | 0.08 | 71 | 1015.0 |
| 20260507080304 | 3 | 264 | 3.2 | 4.8 | 0.00 | 0.08 | 0.08 | 70 | 1015.0 |
| 20260507075803 | 3 | 256 | 6.4 | 11.3 | 0.00 | 0.08 | 0.08 | 70 | 1014.9 |
| 20260507075306 | 4 | 253 | 1.6 | 4.8 | 0.00 | 0.08 | 0.08 | 74 | 1014.7 |
| 20260507074803 | 4 | 45 | 1.6 | 4.8 | 0.00 | 0.10 | 0.08 | 75 | 1014.7 |
| 20260507074304 | 4 | 52 | 3.2 | 8.0 | 0.00 | 0.10 | 0.08 | 75 | 1014.7 |
| 20260507073804 | 3 | 163 | 1.6 | 1.6 | 0.00 | 0.10 | 0.08 | 76 | 1014.7 |
| 20260507073304 | 3 | 91 | 1.6 | 4.8 | 0.00 | 0.10 | 0.08 | 77 | 1014.8 |
| 20260507072804 | 3 | 93 | 1.6 | 4.8 | 0.00 | 0.10 | 0.08 | 80 | 1014.8 |
| 20260507072306 | 3 | 130 | 1.6 | 8.0 | 0.03 | 0.10 | 0.08 | 77 | 1014.8 |
| 20260507071804 | 3 | 43 | 3.2 | 8.0 | 0.03 | 0.10 | 0.08 | 75 | 1014.8 |
| 20260507071304 | 3 | 25 | 1.6 | 8.0 | 0.03 | 0.10 | 0.08 | 79 | 1014.8 |
| 20260507065306 | 2 | 350 | 0.0 | 1.6 | 0.03 | 0.10 | 0.08 | 77 | 1014.7 |
| 20260507064804 | 2 | 18 | 0.0 | 4.8 | 0.03 | 0.10 | 0.08 | 80 | 1014.7 |
| 20260507064304 | 2 | 39 | 1.6 | 3.2 | 0.03 | 0.10 | 0.08 | 77 | 1014.7 |
| 20260507063803 | 2 | 40 | 0.0 | 3.2 | 0.03 | 0.10 | 0.08 | 81 | 1014.6 |
| 20260507063303 | 2 | 40 | 1.6 | 3.2 | 0.03 | 0.10 | 0.08 | 82 | 1014.5 |
| 20260507062306 | 1 | 2 | 0.0 | 1.6 | 0.03 | 0.10 | 0.05 | 87 | 1014.5 |
| 20260507061804 | 1 | 341 | 0.0 | 1.6 | 0.03 | 0.10 | 0.05 | 87 | 1014.6 |
| 20260507061303 | 1 | 341 | 0.0 | 1.6 | 0.05 | 0.10 | 0.05 | 87 | 1014.4 |
| 20260507060803 | 1 | 341 | 1.6 | 3.2 | 0.05 | 0.10 | 0.05 | 84 | 1014.4 |
| 20260507060304 | 1 | 252 | 0.0 | 1.6 | 0.05 | 0.10 | 0.05 | 79 | 1014.4 |
| 20260507055803 | 1 | 252 | 0.0 | 0.0 | 0.05 | 0.10 | 0.05 | 79 | 1014.3 |
| 20260507055306 | 1 | 252 | 0.0 | 0.0 | 0.05 | 0.10 | 0.05 | 80 | 1014.2 |
| 20260507054804 | 1 | 252 | 0.0 | 1.6 | 0.05 | 0.10 | 0.05 | 83 | 1014.3 |
| 20260507054304 | 1 | 252 | 0.0 | 1.6 | 0.05 | 0.10 | 0.05 | 84 | 1014.3 |
| 20260507053803 | 1 | 252 | 0.0 | 1.6 | 0.05 | 0.10 | 0.05 | 83 | 1014.2 |
| 20260507053303 | 1 | 252 | 0.0 | 1.6 | 0.05 | 0.10 | 0.05 | 85 | 1014.3 |
| 20260507052803 | 0 | 252 | 0.0 | 1.6 | 0.03 | 0.08 | 0.03 | 84 | 1014.2 |
| 20260507052306 | 0 | 253 | 0.0 | 1.6 | 0.03 | 0.08 | 0.03 | 85 | 1014.2 |
| 20260507051303 | 0 | 252 | 0.0 | 1.6 | 0.00 | 0.05 | 0.00 | 86 | 1014.1 |
| 20260507050304 | 0 | 254 | 1.6 | 3.2 | 0.00 | 0.05 | 0.00 | 87 | 1014.1 |
| 20260507044803 | 0 | 274 | 0.0 | 1.6 | 0.00 | 0.05 | 0.00 | 89 | 1014.1 |
| 20260507044304 | 0 | 272 | 0.0 | 1.6 | 0.00 | 0.05 | 0.00 | 89 | 1014.1 |
| 20260507043804 | 0 | 272 | 0.0 | 1.6 | 0.00 | 0.05 | 0.00 | 89 | 1014.0 |
| 20260507042804 | 0 | 267 | 0.0 | 0.0 | 0.00 | 0.05 | 0.00 | 89 | 1014.0 |
| 20260507042306 | 0 | 267 | 0.0 | 0.0 | 0.00 | 0.05 | 0.00 | 89 | 1014.1 |
| 20260507041803 | 0 | 267 | 0.0 | 0.0 | 0.00 | 0.05 | 0.00 | 89 | 1014.0 |
| 20260507040804 | 0 | 267 | 0.0 | 0.0 | 0.00 | 0.05 | 0.00 | 89 | 1014.0 |
| 20260507040303 | 0 | 267 | 0.0 | 1.6 | 0.00 | 0.05 | 0.00 | 88 | 1014.0 |
| 20260507035804 | 0 | 263 | 0.0 | 3.2 | 0.00 | 0.05 | 0.00 | 88 | 1014.0 |
| 20260507035306 | 0 | 274 | 0.0 | 1.6 | 0.00 | 0.05 | 0.00 | 88 | 1013.8 |
| 20260507034304 | 0 | 277 | 1.6 | 3.2 | 0.00 | 0.05 | 0.00 | 88 | 1013.7 |
| 20260507033804 | 0 | 308 | 0.0 | 1.6 | 0.00 | 0.05 | 0.00 | 88 | 1013.7 |
| 20260507033303 | 0 | 308 | 0.0 | 1.6 | 0.00 | 0.05 | 0.00 | 88 | 1013.7 |
| 20260507031804 | 0 | 310 | 0.0 | 1.6 | 0.00 | 0.05 | 0.00 | 88 | 1013.6 |
| 20260507031304 | 0 | 309 | 0.0 | 1.6 | 0.00 | 0.05 | 0.00 | 87 | 1013.6 |
| 20260507030803 | 0 | 309 | 0.0 | 1.6 | 0.00 | 0.05 | 0.00 | 87 | 1013.5 |
| 20260507030303 | 0 | 309 | 0.0 | 0.0 | 0.00 | 0.05 | 0.00 | 87 | 1013.5 |
| 20260507025803 | 0 | 309 | 0.0 | 0.0 | 0.00 | 0.05 | 0.00 | 87 | 1013.4 |
| 20260507025306 | 0 | 309 | 0.0 | 0.0 | 0.00 | 0.05 | 0.00 | 87 | 1013.4 |
| 20260507024304 | 0 | 310 | 0.0 | 1.6 | 0.00 | 0.05 | 0.00 | 87 | 1013.4 |
| 20260507023804 | 0 | 310 | 0.0 | 1.6 | 0.00 | 0.05 | 0.00 | 87 | 1013.4 |
| 20260507023303 | 0 | 310 | 0.0 | 0.0 | 0.00 | 0.05 | 0.00 | 86 | 1013.4 |
| 20260507022804 | 0 | 310 | 0.0 | 1.6 | 0.00 | 0.05 | 0.00 | 85 | 1013.3 |
| 20260507022306 | 0 | 310 | 0.0 | 0.0 | 0.00 | 0.05 | 0.00 | 84 | 1013.3 |
| 20260507021804 | 0 | 310 | 0.0 | 1.6 | 0.00 | 0.05 | 0.00 | 84 | 1013.3 |
| 20260507021303 | 1 | 317 | 0.0 | 1.6 | 0.00 | 0.05 | 0.00 | 82 | 1013.2 |
| 20260507020804 | 1 | 325 | 0.0 | 1.6 | 0.00 | 0.05 | 0.00 | 79 | 1013.1 |
| 20260507020304 | 1 | 3 | 0.0 | 1.6 | 0.00 | 0.05 | 0.00 | 79 | 1012.9 |
| 20260507015804 | 1 | 3 | 0.0 | 0.0 | 0.00 | 0.05 | 0.00 | 76 | 1012.9 |
| 20260507014803 | 1 | 3 | 0.0 | 1.6 | 0.00 | 0.05 | 0.00 | 76 | 1012.9 |
| 20260507014304 | 1 | 3 | 0.0 | 0.0 | 0.00 | 0.05 | 0.00 | 76 | 1012.9 |
| 20260507013804 | 1 | 3 | 0.0 | 1.6 | 0.00 | 0.05 | 0.00 | 76 | 1012.9 |
| 20260507013304 | 1 | 2 | 0.0 | 0.0 | 0.00 | 0.05 | 0.00 | 76 | 1012.8 |
| 20260507012804 | 1 | 2 | 0.0 | 0.0 | 0.00 | 0.05 | 0.00 | 76 | 1012.9 |
| 20260507012306 | 1 | 2 | 0.0 | 1.6 | 0.00 | 0.05 | 0.00 | 76 | 1012.8 |
| 20260507011803 | 1 | 2 | 0.0 | 0.0 | 0.00 | 0.05 | 0.00 | 76 | 1012.8 |
| 20260507011304 | 1 | 2 | 0.0 | 1.6 | 0.00 | 0.05 | 0.00 | 77 | 1012.8 |
| 20260507010804 | 1 | 6 | 0.0 | 1.6 | 0.00 | 0.05 | 0.00 | 76 | 1012.6 |
| 20260507005804 | 1 | 25 | 0.0 | 1.6 | 0.00 | 0.05 | 0.00 | 77 | 1012.6 |
| 20260507005305 | 1 | 25 | 0.0 | 1.6 | 0.00 | 0.05 | 0.00 | 77 | 1012.6 |
| 20260507004304 | 1 | 25 | 0.0 | 0.0 | 0.00 | 0.05 | 0.00 | 78 | 1012.7 |
| 20260507003804 | 0 | 25 | 0.0 | 1.6 | 0.00 | 0.05 | 0.00 | 78 | 1012.6 |
| 20260507003303 | 0 | 25 | 0.0 | 0.0 | 0.00 | 0.05 | 0.00 | 78 | 1012.6 |
| 20260507002804 | 0 | 25 | 0.0 | 0.0 | 0.00 | 0.05 | 0.00 | 79 | 1012.6 |
| 20260507002306 | 1 | 25 | 0.0 | 0.0 | 0.00 | 0.05 | 0.00 | 78 | 1012.6 |
| 20260507001803 | 1 | 25 | 0.0 | 3.2 | 0.00 | 0.05 | 0.00 | 78 | 1012.6 |
| 20260507001304 | 0 | 262 | 0.0 | 1.6 | 0.00 | 0.05 | 0.00 | 79 | 1012.6 |
| 20260506235804 | 0 | 262 | 1.6 | 4.8 | 0.00 | 0.05 | 0.00 | 80 | 1012.4 |
| 20260506225305 | 1 | 252 | 0.0 | 4.8 | 0.00 | 0.05 | 0.00 | 74 | 1012.2 |
| 20260506224804 | 1 | 262 | 0.0 | 1.6 | 0.00 | 0.05 | 0.00 | 73 | 1012.2 |
| 20260506224304 | 1 | 262 | 1.6 | 3.2 | 0.00 | 0.05 | 0.00 | 74 | 1012.2 |
| 20260506223803 | 1 | 260 | 0.0 | 1.6 | 0.00 | 0.05 | 0.00 | 73 | 1012.3 |
| 20260506223304 | 1 | 260 | 1.6 | 4.8 | 0.00 | 0.05 | 0.00 | 73 | 1012.2 |
| 20260506222804 | 1 | 31 | 0.0 | 1.6 | 0.00 | 0.05 | 0.00 | 74 | 1012.1 |
| 20260506222306 | 1 | 31 | 0.0 | 1.6 | 0.00 | 0.05 | 0.00 | 74 | 1012.2 |
| 20260506221804 | 1 | 31 | 0.0 | 1.6 | 0.00 | 0.05 | 0.00 | 74 | 1012.2 |
| 20260506221304 | 1 | 30 | 0.0 | 3.2 | 0.00 | 0.05 | 0.00 | 74 | 1012.2 |
| 20260506220804 | 1 | 258 | 0.0 | 1.6 | 0.00 | 0.05 | 0.00 | 75 | 1012.1 |
| 20260506220304 | 1 | 258 | 0.0 | 1.6 | 0.00 | 0.05 | 0.00 | 74 | 1012.1 |
| 20260506215804 | 1 | 258 | 0.0 | 3.2 | 0.00 | 0.05 | 0.05 | 75 | 1012.1 |
| 20260506215306 | 1 | 275 | 0.0 | 1.6 | 0.00 | 0.05 | 0.05 | 75 | 1012.1 |
| 20260506214803 | 1 | 271 | 0.0 | 1.6 | 0.00 | 0.05 | 0.05 | 75 | 1012.1 |
| 20260506214304 | 1 | 271 | 0.0 | 1.6 | 0.00 | 0.05 | 0.05 | 75 | 1012.0 |
| 20260506213803 | 1 | 271 | 0.0 | 0.0 | 0.00 | 0.05 | 0.05 | 75 | 1012.1 |
| 20260506213303 | 1 | 271 | 0.0 | 0.0 | 0.00 | 0.05 | 0.05 | 76 | 1012.2 |
| 20260506212803 | 1 | 271 | 0.0 | 0.0 | 0.00 | 0.05 | 0.05 | 76 | 1012.1 |
| 20260506212306 | 1 | 271 | 0.0 | 1.6 | 0.00 | 0.05 | 0.05 | 75 | 1012.1 |
| 20260506211803 | 1 | 271 | 0.0 | 0.0 | 0.00 | 0.05 | 0.05 | 75 | 1012.1 |
| 20260506211304 | 1 | 271 | 0.0 | 3.2 | 0.00 | 0.05 | 0.05 | 76 | 1012.1 |
| 20260506210803 | 1 | 290 | 1.6 | 4.8 | 0.00 | 0.05 | 0.05 | 75 | 1012.1 |
| 20260506210304 | 1 | 266 | 0.0 | 1.6 | 0.00 | 0.05 | 0.05 | 76 | 1012.1 |
| 20260506205804 | 1 | 266 | 0.0 | 1.6 | 0.00 | 0.05 | 0.05 | 76 | 1012.0 |
| 20260506205306 | 1 | 266 | 1.6 | 4.8 | 0.00 | 0.05 | 0.05 | 76 | 1011.9 |
| 20260506204804 | 1 | 251 | 0.0 | 3.2 | 0.00 | 0.05 | 0.05 | 77 | 1012.0 |
| 20260506204304 | 1 | 255 | 1.6 | 4.8 | 0.00 | 0.05 | 0.05 | 77 | 1011.9 |
| 20260506203803 | 1 | 259 | 0.0 | 3.2 | 0.00 | 0.05 | 0.05 | 77 | 1012.0 |
| 20260506202803 | 1 | 269 | 1.6 | 4.8 | 0.00 | 0.05 | 0.05 | 74 | 1011.8 |
| 20260506202306 | 1 | 266 | 0.0 | 0.0 | 0.00 | 0.05 | 0.05 | 74 | 1011.8 |
| 20260506201804 | 1 | 266 | 0.0 | 3.2 | 0.00 | 0.05 | 0.05 | 74 | 1011.8 |
| 20260506201304 | 1 | 266 | 0.0 | 3.2 | 0.00 | 0.05 | 0.05 | 74 | 1011.8 |
| 20260506200303 | 1 | 304 | 0.0 | 3.2 | 0.00 | 0.05 | 0.05 | 75 | 1011.8 |
| 20260506195804 | 1 | 304 | 0.0 | 1.6 | 0.00 | 0.05 | 0.05 | 75 | 1011.8 |
| 20260506195306 | 1 | 304 | 0.0 | 0.0 | 0.00 | 0.05 | 0.05 | 75 | 1011.8 |
| 20260506194804 | 1 | 304 | 0.0 | 1.6 | 0.00 | 0.05 | 0.05 | 75 | 1011.8 |
| 20260506194303 | 1 | 304 | 0.0 | 1.6 | 0.00 | 0.05 | 0.05 | 75 | 1011.8 |
| 20260506193304 | 1 | 304 | 0.0 | 0.0 | 0.00 | 0.05 | 0.05 | 75 | 1011.7 |
| 20260506192804 | 1 | 304 | 0.0 | 0.0 | 0.00 | 0.05 | 0.05 | 75 | 1011.8 |
| 20260506192306 | 1 | 304 | 0.0 | 0.0 | 0.00 | 0.05 | 0.05 | 75 | 1011.7 |
| 20260506191304 | 1 | 272 | 0.0 | 1.6 | 0.00 | 0.05 | 0.05 | 75 | 1011.7 |
| 20260506190804 | 1 | 272 | 0.0 | 1.6 | 0.00 | 0.05 | 0.05 | 75 | 1011.7 |
| 20260506185804 | 2 | 264 | 3.2 | 11.3 | 0.00 | 0.05 | 0.05 | 75 | 1011.7 |
| 20260506185306 | 2 | 246 | 4.8 | 16.1 | 0.00 | 0.05 | 0.05 | 75 | 1011.5 |
| 20260506184804 | 2 | 255 | 8.0 | 19.3 | 0.00 | 0.05 | 0.05 | 75 | 1011.6 |
| 20260506184304 | 2 | 256 | 8.0 | 11.3 | 0.00 | 0.05 | 0.05 | 74 | 1011.4 |
| 20260506183804 | 2 | 261 | 6.4 | 14.5 | 0.00 | 0.05 | 0.05 | 73 | 1011.5 |
| 20260506183303 | 2 | 232 | 3.2 | 16.1 | 0.00 | 0.05 | 0.05 | 74 | 1011.4 |
| 20260506182803 | 2 | 241 | 8.0 | 16.1 | 0.00 | 0.05 | 0.05 | 73 | 1011.4 |
| 20260506181804 | 2 | 241 | 9.7 | 19.3 | 0.00 | 0.05 | 0.05 | 74 | 1011.4 |
| 20260506181303 | 2 | 239 | 8.0 | 20.9 | 0.00 | 0.05 | 0.05 | 75 | 1011.3 |
| 20260506180303 | 2 | 245 | 9.7 | 20.9 | 0.00 | 0.05 | 0.05 | 74 | 1011.4 |
| 20260506175804 | 2 | 256 | 11.3 | 19.3 | 0.00 | 0.05 | 0.05 | 73 | 1011.3 |
| 20260506175306 | 3 | 267 | 4.8 | 14.5 | 0.00 | 0.05 | 0.05 | 69 | 1011.2 |
| 20260506174804 | 3 | 262 | 4.8 | 9.7 | 0.00 | 0.05 | 0.05 | 66 | 1011.2 |
| 20260506173804 | 2 | 250 | 1.6 | 4.8 | 0.00 | 0.05 | 0.05 | 66 | 1011.2 |
| 20260506173304 | 2 | 276 | 1.6 | 4.8 | 0.00 | 0.05 | 0.05 | 65 | 1011.1 |
| 20260506172804 | 3 | 244 | 4.8 | 9.7 | 0.00 | 0.05 | 0.05 | 65 | 1011.1 |
| 20260506171804 | 3 | 246 | 1.6 | 9.7 | 0.00 | 0.05 | 0.05 | 65 | 1011.1 |
| 20260506171303 | 3 | 230 | 1.6 | 11.3 | 0.00 | 0.05 | 0.05 | 64 | 1011.1 |
| 20260506170804 | 3 | 258 | 3.2 | 8.0 | 0.00 | 0.05 | 0.05 | 65 | 1011.0 |
| 20260506170303 | 3 | 242 | 4.8 | 8.0 | 0.00 | 0.05 | 0.05 | 64 | 1011.0 |
| 20260506165804 | 3 | 237 | 3.2 | 9.7 | 0.00 | 0.05 | 0.05 | 64 | 1011.0 |
| 20260506165305 | 3 | 260 | 8.0 | 14.5 | 0.00 | 0.05 | 0.05 | 63 | 1011.0 |
| 20260506164804 | 3 | 229 | 6.4 | 14.5 | 0.00 | 0.05 | 0.05 | 63 | 1011.0 |
| 20260506164304 | 3 | 249 | 3.2 | 9.7 | 0.00 | 0.05 | 0.05 | 66 | 1011.0 |
| 20260506163804 | 3 | 216 | 3.2 | 14.5 | 0.00 | 0.05 | 0.05 | 65 | 1011.1 |
| 20260506163303 | 3 | 256 | 3.2 | 12.9 | 0.00 | 0.05 | 0.05 | 67 | 1011.2 |
| 20260506162804 | 3 | 254 | 3.2 | 8.0 | 0.00 | 0.05 | 0.05 | 70 | 1011.1 |
| 20260506162306 | 3 | 255 | 4.8 | 12.9 | 0.00 | 0.05 | 0.05 | 70 | 1011.2 |
| 20260506161804 | 2 | 250 | 3.2 | 9.7 | 0.00 | 0.05 | 0.05 | 72 | 1011.2 |
| 20260506161305 | 2 | 249 | 1.6 | 11.3 | 0.00 | 0.05 | 0.05 | 74 | 1011.2 |
| 20260506160803 | 2 | 233 | 4.8 | 9.7 | 0.00 | 0.05 | 0.05 | 74 | 1011.2 |
| 20260506160303 | 2 | 238 | 3.2 | 16.1 | 0.00 | 0.05 | 0.05 | 74 | 1011.2 |
| 20260506155804 | 2 | 226 | 11.3 | 24.1 | 0.00 | 0.05 | 0.05 | 73 | 1011.2 |
| 20260506155306 | 2 | 233 | 11.3 | 20.9 | 0.00 | 0.05 | 0.05 | 72 | 1011.3 |
| 20260506154803 | 3 | 221 | 8.0 | 16.1 | 0.00 | 0.05 | 0.05 | 66 | 1011.3 |
| 20260506154304 | 3 | 260 | 8.0 | 19.3 | 0.00 | 0.05 | 0.05 | 65 | 1011.2 |
| 20260506153804 | 3 | 252 | 8.0 | 16.1 | 0.00 | 0.05 | 0.05 | 61 | 1011.0 |
| 20260506152803 | 4 | 272 | 3.2 | 8.0 | 0.00 | 0.05 | 0.05 | 60 | 1011.0 |
| 20260506152306 | 4 | 263 | 3.2 | 9.7 | 0.00 | 0.05 | 0.05 | 60 | 1010.9 |
| 20260506151804 | 4 | 254 | 4.8 | 14.5 | 0.00 | 0.05 | 0.05 | 60 | 1010.9 |
| 20260506151304 | 4 | 273 | 3.2 | 9.7 | 0.00 | 0.05 | 0.05 | 60 | 1010.7 |
| 20260506150804 | 3 | 256 | 6.4 | 19.3 | 0.00 | 0.05 | 0.05 | 58 | 1010.9 |
| 20260506145803 | 4 | 253 | 6.4 | 16.1 | 0.00 | 0.05 | 0.05 | 56 | 1010.9 |
| 20260506144804 | 4 | 235 | 4.8 | 14.5 | 0.00 | 0.05 | 0.05 | 55 | 1010.8 |
| 20260506144304 | 4 | 230 | 4.8 | 12.9 | 0.00 | 0.05 | 0.05 | 57 | 1010.7 |
| 20260506143804 | 5 | 229 | 8.0 | 16.1 | 0.00 | 0.05 | 0.05 | 56 | 1010.8 |
| 20260506143304 | 5 | 229 | 11.3 | 20.9 | 0.00 | 0.05 | 0.05 | 54 | 1010.7 |
| 20260506142803 | 6 | 263 | 4.8 | 14.5 | 0.00 | 0.05 | 0.05 | 54 | 1010.8 |
| 20260506142306 | 6 | 248 | 1.6 | 4.8 | 0.00 | 0.05 | 0.05 | 52 | 1010.8 |
| 20260506141804 | 5 | 262 | 4.8 | 12.9 | 0.00 | 0.05 | 0.05 | 53 | 1010.9 |
| 20260506140804 | 5 | 247 | 3.2 | 22.5 | 0.00 | 0.05 | 0.05 | 57 | 1010.9 |
| 20260506135804 | 5 | 267 | 4.8 | 19.3 | 0.00 | 0.05 | 0.05 | 57 | 1010.9 |
| 20260506135306 | 5 | 210 | 3.2 | 19.3 | 0.00 | 0.05 | 0.05 | 55 | 1010.9 |
| 20260506134804 | 5 | 225 | 1.6 | 12.9 | 0.00 | 0.05 | 0.05 | 60 | 1010.9 |
| 20260506134304 | 4 | 217 | 4.8 | 19.3 | 0.00 | 0.05 | 0.05 | 58 | 1011.0 |
| 20260506133803 | 3 | 242 | 8.0 | 16.1 | 0.00 | 0.05 | 0.05 | 56 | 1011.0 |
| 20260506133304 | 4 | 235 | 6.4 | 19.3 | 0.00 | 0.05 | 0.05 | 60 | 1011.0 |
| 20260506132803 | 5 | 246 | 9.7 | 16.1 | 0.00 | 0.05 | 0.05 | 57 | 1011.0 |
| 20260506132307 | 6 | 219 | 11.3 | 19.3 | 0.00 | 0.05 | 0.05 | 53 | 1011.0 |
| 20260506131303 | 5 | 283 | 1.6 | 11.3 | 0.00 | 0.05 | 0.05 | 55 | 1010.9 |
| 20260506130804 | 5 | 248 | 4.8 | 19.3 | 0.00 | 0.05 | 0.05 | 59 | 1010.9 |
| 20260506130303 | 4 | 239 | 3.2 | 11.3 | 0.00 | 0.05 | 0.05 | 59 | 1010.9 |
| 20260506125803 | 4 | 247 | 4.8 | 9.7 | 0.00 | 0.05 | 0.05 | 58 | 1010.9 |
| 20260506125305 | 3 | 260 | 4.8 | 12.9 | 0.00 | 0.05 | 0.05 | 58 | 1010.9 |
| 20260506124804 | 3 | 262 | 4.8 | 14.5 | 0.00 | 0.05 | 0.05 | 56 | 1011.0 |
| 20260506124303 | 4 | 188 | 3.2 | 14.5 | 0.00 | 0.05 | 0.05 | 59 | 1010.9 |